McCook, NE

6:32 AM CDT on July 25, 2016 (GMT -0500)
McCook Municipal

Weather History for KMCK - September, 2013

Change the Weather History Date:

Thursday, September 12, 2013

  Actual Average Record
Temperature  
Mean Temperature 70 °F 66 °F  
Max Temperature 74 °F 81 °F 103 °F (1911)
Min Temperature 65 °F 51 °F 34 °F (2014)
Cooling Degree Days 4    
Growing Degree Days 18 (Base 50)    
Moisture  
Dew Point 64 °F    
Average Humidity 90    
Maximum Humidity 100    
Minimum Humidity 64    
Precipitation  
Precipitation 0.04 in 0.04 in 1.61 in (2002)
Month to date precipitation 0.41 0.60  
Year to date precipitation 9.58 18.31  
Sea Level Pressure  
Sea Level Pressure 30.21 in    
Wind  
Wind Speed 5 mph (ENE)    
Max Wind Speed 16 mph    
Max Gust Speed -    
Visibility 6 miles    
Events Rain    
T = Trace of Precipitation, MM = Missing Value Source: NWS Daily Summary

Daily Weather History Graph

Daily Weather History Graph

Search for Another Location

Airport or City:

Trip Planner

Search our weather history database for the weather conditions in past years. The results will help you decide how hot, cold, wet, or windy it might be!

Date:

Astronomy

Sep. 12, 2013 Rise Set
Actual Time 7:20 AM CDT 7:55 PM CDT
Civil Twilight 6:53 AM CDT 8:22 PM CDT
Nautical Twilight 6:20 AM CDT 8:55 PM CDT
Astronomical Twilight 5:47 AM CDT 9:28 PM CDT
Moon 2:50 PM CDT (9/12) No Moon Set
Length of Visible Light 13h 29m
Length of Day
12h 34m
Waxing Crescent, 50% of the Moon is Illuminated
Sep 12
Waxing Crescent
Sep 12
First Quarter
Sep 19
Full
Sep 26
Last Quarter
Oct 4
New

Hourly Weather History & Observations

Time (CDT) Temp. Dew Point Humidity Pressure Visibility Wind Dir Wind Speed Gust Speed Precip Events Conditions
12:53 AM 66.0 °F 64.9 °F 96% 30.14 in 5.0 mi East 3.5 mph - N/A   Partly Cloudy
1:37 AM 66.2 °F 64.4 °F 94% 30.20 in 5.0 mi Calm Calm - N/A   Mostly Cloudy
1:48 AM 66.2 °F 64.4 °F 94% 30.21 in 5.0 mi North 3.5 mph - N/A   Mostly Cloudy
1:53 AM 66.0 °F 64.9 °F 96% 30.14 in 5.0 mi Calm Calm - N/A   Overcast
2:53 AM 66.0 °F 64.9 °F 96% 30.15 in 6.0 mi Calm Calm - N/A   Overcast
3:53 AM 66.0 °F 64.9 °F 96% 30.14 in 4.0 mi Calm Calm - N/A   Overcast
4:49 AM 66.2 °F 64.4 °F 94% 30.21 in 3.0 mi Calm Calm - N/A   Mostly Cloudy
4:53 AM 66.0 °F 64.9 °F 96% 30.15 in 3.0 mi Calm Calm - N/A   Overcast
5:11 AM 66.2 °F 64.4 °F 94% 30.21 in 3.0 mi Calm Calm - N/A   Overcast
5:26 AM 66.2 °F 64.4 °F 94% 30.21 in 3.0 mi NE 4.6 mph - N/A   Overcast
5:33 AM 66.2 °F 64.4 °F 94% 30.21 in 3.0 mi NNE 5.8 mph - N/A   Overcast
5:53 AM 66.9 °F 64.9 °F 93% 30.17 in 4.0 mi NE 4.6 mph - N/A   Overcast
6:33 AM 66.2 °F 64.4 °F 94% 30.22 in 4.0 mi NE 3.5 mph - N/A   Mostly Cloudy
6:53 AM 66.0 °F 64.9 °F 96% 30.17 in 4.0 mi Calm Calm - N/A   Scattered Clouds
7:09 AM 66.2 °F 64.4 °F 94% 30.22 in 4.0 mi Calm Calm - N/A   Mostly Cloudy
7:51 AM 66.2 °F 64.4 °F 94% 30.24 in 2.5 mi NE 3.5 mph - N/A   Overcast
7:53 AM 66.9 °F 64.9 °F 93% 30.20 in 2.5 mi NNE 3.5 mph - N/A   Overcast
8:09 AM 66.2 °F 64.4 °F 94% 30.25 in 3.0 mi NE 5.8 mph - N/A   Overcast
8:22 AM 66.2 °F 64.4 °F 94% 30.25 in 4.0 mi NE 6.9 mph - N/A   Overcast
8:29 AM 66.2 °F 64.4 °F 94% 30.25 in 5.0 mi NE 5.8 mph - N/A   Overcast
8:38 AM 66.2 °F 64.4 °F 94% 30.25 in 2.5 mi NE 5.8 mph - 0.00 in Rain Light Rain
8:46 AM 66.2 °F 64.4 °F 94% 30.25 in 3.0 mi NNE 6.9 mph - 0.00 in Rain Light Rain
8:53 AM 66.9 °F 64.9 °F 93% 30.21 in 4.0 mi NE 5.8 mph - 0.00 in   Overcast
9:03 AM 66.2 °F 64.4 °F 94% 30.25 in 5.0 mi NE 6.9 mph - N/A   Overcast
9:53 AM 68.0 °F 66.0 °F 93% 30.22 in 5.0 mi NE 6.9 mph - N/A   Overcast
10:11 AM 69.8 °F 66.2 °F 88% 30.27 in 7.0 mi NE 9.2 mph - N/A   Overcast
10:23 AM 68.0 °F 64.4 °F 88% 30.27 in 7.0 mi NE 8.1 mph - N/A   Overcast
10:53 AM 69.1 °F 64.9 °F 87% 30.22 in 7.0 mi ENE 11.5 mph - N/A   Overcast
11:02 AM 69.8 °F 64.4 °F 83% 30.27 in 7.0 mi ENE 8.1 mph - N/A   Overcast
11:53 AM 72.0 °F 64.0 °F 76% 30.22 in 10.0 mi ENE 13.8 mph - 0.01 in   Overcast
12:07 PM 71.6 °F 64.4 °F 78% 30.27 in 9.0 mi East 12.7 mph - N/A   Overcast
12:53 PM 72.0 °F 64.0 °F 76% 30.22 in 10.0 mi East 12.7 mph - N/A   Mostly Cloudy
1:24 PM 71.6 °F 64.4 °F 78% 30.25 in 10.0 mi East 16.1 mph - N/A   Overcast
1:53 PM 71.1 °F 62.1 °F 73% 30.21 in 10.0 mi East 13.8 mph - N/A   Overcast
2:53 PM 72.0 °F 62.1 °F 71% 30.20 in 10.0 mi East 10.4 mph - N/A   Overcast
3:53 PM 73.0 °F 60.1 °F 64% 30.18 in 10.0 mi East 9.2 mph - N/A   Overcast
4:53 PM 69.1 °F 64.9 °F 87% 30.18 in 4.0 mi SSE 10.4 mph - 0.00 in Rain Light Rain
5:01 PM 68.0 °F 66.2 °F 94% 30.23 in 3.0 mi South 9.2 mph - 0.00 in Rain Light Rain
5:14 PM 68.0 °F 66.2 °F 94% 30.22 in 2.5 mi South 8.1 mph - 0.01 in Rain Light Rain
5:39 PM 66.2 °F 66.2 °F 100% 30.22 in 4.0 mi SSE 8.1 mph - 0.02 in Rain Light Rain
5:53 PM 66.9 °F 66.0 °F 97% 30.18 in 3.0 mi SSE 6.9 mph - 0.02 in Rain Light Rain
6:22 PM 66.2 °F 64.4 °F 94% 30.22 in 4.0 mi SE 9.2 mph - 0.01 in Rain Light Rain
6:53 PM 66.9 °F 63.0 °F 87% 30.17 in 10.0 mi SE 10.4 mph - 0.01 in   Overcast
7:53 PM 66.0 °F 62.1 °F 87% 30.16 in 10.0 mi SE 5.8 mph - N/A   Overcast
8:53 PM 64.9 °F 62.1 °F 90% 30.17 in 10.0 mi NE 5.8 mph - N/A   Scattered Clouds
9:53 PM 66.0 °F 63.0 °F 90% 30.19 in 8.0 mi ENE 3.5 mph - N/A   Overcast
10:53 PM 66.9 °F 64.0 °F 90% 30.19 in 8.0 mi ENE 3.5 mph - N/A   Overcast
11:53 PM 66.9 °F 62.1 °F 84% 30.18 in 10.0 mi East 9.2 mph - N/A   Overcast